{"data":{"norad_id":55744,"epoch":"2026-05-25T04:14:24.215424Z","epoch_age_seconds":70450,"freshness":"FRESH","line1":"1 55744U 23028D   26145.17666916 -.00000281  00000+0 -15760-4 0  9995","line2":"2 55744  70.0010  51.7501 0003035 267.7255  92.3556 14.98324458177495","mean_motion":14.98324458,"eccentricity":0.0003035,"inclination_deg":70.001,"raan_deg":51.7501,"arg_perigee_deg":267.7255,"mean_anomaly_deg":92.3556,"bstar":-1.576e-5,"rev_number":17749,"period_min":96.107354606101,"perigee_km":569.96364043123,"apogee_km":574.18241791894,"semimajor_km":6950.2100291751,"source":"CELESTRAK","updated_at":"2026-05-25T13:38:17.878522Z"}}